Regional Weather Roundup
Issued by NWS

Home | Current Version | Previous Version | Graphics & Text | Print | Product List | Glossary On
Versions: 1 2 3 4 5 6 7 8 9 10 11 12 13 14 15 16 17 18 19 20 21 22 23 24 25 26 27 28 29 30 31 32 33 34 35 36 37 38 39 40 41 42 43 44 45 46 47 48 49 50
000
ASUS43 KDTX 141301
RWRMI
MICHIGAN HOURLY REGIONAL WEATHER ROUNDUP
NATIONAL WEATHER SERVICE DETROIT/PONTIAC MI
900 AM EDT MON JUL 14 2014

NOTE: "FAIR" INDICATES FEW OR NO CLOUDS BELOW 12,000 FEET WITH NO
SIGNIFICANT WEATHER AND/OR OBSTRUCTION TO VISIBILITY.

MIZ047>049-052>055-059>063-066>070-074>076-081>083-141400-
SOUTHEAST LOWER MICHIGAN

CITY           SKY/WX    TMP DP  RH WIND       PRES   REMARKS
ADRIAN         PTSUNNY   68  63  84 CALM      29.87F
ALMA           SUNNY     68  63  83 W3        29.86S
ANN ARBOR      PTSUNNY   68  63  84 SW3       29.87S
BAD AXE        PTSUNNY   65  57  75 SE6       29.87S
CARO           PTSUNNY   68  65  88 S3        29.85S
DETROIT CITY   CLOUDY    71  65  81 S3        29.85F
DETROIT        CLOUDY    68  65  90 S3        29.86F
FLINT          MOSUNNY   71  63  75 W6        29.85S
GROSSE ILE     CLOUDY    70  64  83 CALM      29.85F
HILLSDALE      MOSUNNY   70  68  92 W3        29.88S
HOWELL         MOSUNNY   68  65  89 SW5       29.86S

CITY           SKY/WX    TMP DP  RH WIND       PRES   REMARKS
JACKSON        MOSUNNY   68  65  90 CALM      29.87S
LAMBERTVILLE   CLOUDY    70  64  83 CALM      29.88R
LANSING        SUNNY     70  63  78 W7        29.87R
LAPEER         FAIR      67  62  83 S6        29.86S
MASON          SUNNY     70  63  80 CALM      29.87S
MONROE         CLOUDY    70  64  83 CALM      29.85S
MT. CLEMENS    PTSUNNY   69  66  92 S6        29.84F
PONTIAC        PTSUNNY   67  63  87 SW7       29.86S
PORT HOPE        N/A     67  57  70 S6        29.85S
PORT HURON     PTSUNNY   66  64  94 SE5       29.86S
TRI CITIES     SUNNY     67  60  78 CALM      29.86S
TROY           PTSUNNY   67  66  96 S6        29.86F
SAGINAW HB     MOSUNNY   68  63  83 CALM      29.85R
$$
MIZ043>046-050>051-056>058-064>065-071>073-077>080-141400-
SOUTHWEST LOWER MICHIGAN

CITY           SKY/WX    TMP DP  RH WIND       PRES   REMARKS
BATTLE CREEK   SUNNY     69  61  75 CALM      29.88S
BENTON HARBOR  MOSUNNY   68  62  81 CALM      29.87R
BIG RAPIDS     SUNNY     62  62  99 CALM      29.86S
COLDWATER      MOSUNNY   69  67  92 SW3       29.88S
FREMONT        FAIR      63  63 100 CALM      29.85S
HOLLAND        SUNNY     70  61  73 CALM      29.87S
GRAND RAPIDS   MOSUNNY   69  64  84 CALM      29.87R
IONIA          FOG       65  64  95 CALM      29.86S VSB 3/4
KALAMAZOO      SUNNY     69  61  75 CALM      29.87S
LUDINGTON      SUNNY     65  57  75 W5        29.85S
MARSHALL       SUNNY     68  64  85 CALM      29.87S
MOUNT PLEASANT FOG       62  62  97 CALM      29.85S VSB 3/4
MUSKEGON       SUNNY     68  62  81 S3        29.86S
SOUTH HAVEN    SUNNY     68  64  86 CALM      29.87R
$$
MIZ016>042-141400-
NORTHERN LOWER MICHIGAN

CITY           SKY/WX    TMP DP  RH WIND       PRES   REMARKS
ALPENA         SUNNY     65  55  70 SW8       29.85S
BEAVER ISLAND  MOSUNNY   64  58  79 W7        29.82R
BELLAIRE       MOSUNNY   63  55  75 S5        29.83S
CADILLAC       MOSUNNY   64  58  80 S9        29.85S
CHARLEVOIX     CLOUDY    65  55  71 S5        29.85S
FRANKFORT      PTSUNNY   65  56  72 SW5       29.83F
GAYLORD        CLOUDY    60  54  80 S5        29.86R
GRAYLING       MOSUNNY   65  59  79 S6        29.86S
HARBOR SPRINGS MOSUNNY   63  55  76 CALM      29.81F
HOUGHTON LAKE  SUNNY     65  60  84 S5        29.87R
MANISTEE       SUNNY     57  55  94 SE3       29.85F
OSCODA         SUNNY     66  57  72 SW6       29.85F
PELLSTON       PTSUNNY   64  55  72 CALM      29.82S
ROGERS CITY    CLOUDY    63  58  83 SW10      29.84S
TRAVERSE CITY  MOSUNNY   66  55  67 SW6       29.82S
$$
MIZ007>008-015-141400-
EASTERN UPPER MICHIGAN

CITY           SKY/WX    TMP DP  RH WIND       PRES   REMARKS
KINROSS        CLOUDY    61  54  77 W5        29.81S
MACKINAC ISLAN MOSUNNY   62  54  75 S5        29.81S
NEWBERRY       CLOUDY    61  55  81 W8        29.80S
S. S. MARIE    CLOUDY    55  50  83 E3        29.81R
$$
MIZ004>006-011>014-085-141400-
CENTRAL UPPER MICHIGAN

CITY           SKY/WX    TMP DP  RH WIND       PRES   REMARKS
MANISTIQUE     PTSUNNY   63  53  70 N7        29.81S
ESCANABA       CLOUDY    57  52  82 CALM      29.81S
MENOMINEE      CLOUDY    59  52  77 CALM      29.81F
SAWYER-GWINN   CLOUDY    57  50  77 CALM      29.82S
$$
MIZ001>003-009>011-084-141400-
WESTERN UPPER MICHIGAN

CITY           SKY/WX    TMP DP  RH WIND       PRES   REMARKS
IRON MOUNTAIN  CLOUDY    57  52  83 NW6       29.82R
HOUGHTON       CLOUDY    55  49  80 W10       29.80S
COPPER HARBOR    N/A     55  50  83 N9        29.80R
IRONWOOD       CLOUDY    55  46  71 W8        29.81R
$$

ABBREVIATIONS USED IN REMARKS
   TC - TEMPERATURE IN CELSIUS
  WCI - WIND CHILL INDEX
   HX - HEAT INDEX
  VSB - VISIBILITY




USA.gov is the U.S. government's official web portal to all federal, state and local government web resources and services.